Theta_e
306 298 298 303 314 320 322 328 328 328 331 329 324 335 335 340 346 349 348 348 351 358 357 358 358 359 360 359 359 357 356 355
299 297 301 308 316 320 321 325 329 331 324 332 339 336 339 344 347 346 346 347 355 358 359 359 358 359 359 359 358 357 355 355
295 298 303 315 319 321 318 323 325 330 324 327 337 341 341 342 344 343 343 346 351 358 359 359 359 358 359 359 359 358 355 354
293 297 310 317 320 324 327 326 326 327 324 326 338 337 339 341 340 343 343 346 349 356 359 359 359 359 359 359 358 357 356 355
294 297 304 315 324 322 320 323 326 329 322 328 334 338 339 339 340 343 344 343 346 349 354 359 359 358 359 358 358 358 357 356
292 295 296 310 324 326 324 322 332 333 326 322 325 338 339 339 339 340 341 342 341 346 350 352 354 359 359 358 357 357 355 355
291 295 296 318 316 326 330 326 325 328 326 332 335 339 337 335 337 336 338 336 337 342 344 347 350 354 358 356 356 356 354 355
296 298 297 316 316 325 326 324 323 322 335 336 337 337 333 332 332 334 336 338 339 341 344 345 351 349 348 350 348 348 347 345
297 298 300 302 315 326 324 320 324 320 326 332 332 334 332 333 333 334 336 339 341 342 344 344 346 344 344 344 344 343 343 341
297 298 298 298 319 322 324 322 328 326 325 330 329 332 331 332 333 334 336 338 341 342 342 343 342 344 343 342 341 340 340 339
298 297 294 314 320 322 323 328 330 329 326 325 330 332 333 334 334 334 334 336 339 341 341 342 337 343 339 340 340 337 336 337
296 296 296 314 320 323 325 330 326 327 323 326 328 330 332 332 331 332 333 335 338 339 340 339 338 338 337 336 335 335 336 338
295 295 294 323 318 317 324 330 323 323 323 325 329 329 330 332 331 332 332 335 335 336 337 336 337 337 332 334 336 333 333 332
292 297 300 299 291 317 325 327 324 327 327 328 328 326 329 332 332 332 333 333 335 336 335 335 336 333 334 333 331 327 326 325
292 297 297 294 293 310 325 323 322 324 324 322 326 326 328 330 332 331 331 331 332 333 333 333 332 334 332 328 326 322 320 320
290 294 296 292 294 316 321 319 317 319 319 321 323 327 326 329 331 329 329 332 332 333 335 335 332 327 324 321 318 317 317 317
293 297 293 293 293 314 320 319 318 318 319 325 326 323 322 327 329 325 328 330 332 334 334 332 328 323 320 315 314 313 314 315
297 301 293 294 302 307 309 311 316 314 316 319 322 323 325 325 326 327 328 331 333 335 331 331 329 326 318 316 313 312 313 314
297 301 295 293 295 301 306 308 311 312 314 316 321 322 324 325 325 328 328 331 333 334 331 330 325 318 315 313 312 310 309 311
298 294 288 296 284 296 301 301 305 308 310 314 318 319 322 326 326 327 329 333 334 333 330 325 321 318 316 314 309 307 308 310
Wind_Speed
4 3 5 5 4 6 3 4 2 5 3 2 1 6 11 7 17 17 13 12 14 19 19 18 18 17 15 15 14 14 14 14
4 6 6 5 3 6 8 4 4 1 4 2 1 13 8 15 16 16 11 11 17 19 18 18 18 18 16 15 14 13 13 12
2 4 4 6 1 7 2 2 3 9 4 2 4 12 19 14 12 16 11 10 15 19 18 18 19 18 17 15 14 13 12 12
6 4 4 3 2 3 2 6 4 2 5 1 9 16 15 12 10 11 12 10 12 17 17 16 17 17 16 15 13 12 11 10
3 3 3 4 4 4 5 6 5 0 9 6 4 9 14 12 9 10 9 11 10 11 13 16 16 16 15 14 12 10 9 8
3 5 5 2 7 2 4 2 7 9 3 6 7 5 7 9 8 10 8 7 8 7 9 8 10 16 15 14 14 11 10 8
5 6 4 2 4 3 1 4 7 6 3 3 5 7 5 7 8 6 7 6 6 6 5 5 6 10 13 15 14 12 10 9
8 6 5 7 7 8 5 7 5 5 12 20 6 12 9 12 16 14 14 12 9 8 9 7 8 7 5 6 4 4 4 5
8 10 9 7 5 8 10 8 12 18 14 18 13 25 25 19 19 20 16 13 13 11 11 11 8 4 3 2 3 3 4 5
9 6 6 6 6 6 12 8 13 22 24 18 24 21 20 19 17 17 15 16 14 12 11 10 5 6 5 4 3 3 4 5
12 11 6 11 10 8 16 3 7 9 14 16 22 29 25 20 17 16 18 15 15 14 12 11 6 6 5 6 4 4 4 4
7 9 5 9 2 4 8 8 11 10 11 13 22 26 21 21 19 17 18 18 17 16 14 12 10 9 7 5 5 4 4 4
5 2 2 14 3 10 8 15 16 16 16 19 24 21 27 24 21 22 18 19 19 19 16 14 13 9 5 5 5 5 5 5
4 4 8 7 8 17 9 15 18 20 16 17 24 21 23 24 23 22 19 20 19 17 17 16 12 8 6 5 5 6 5 5
8 5 2 3 8 6 13 17 19 17 18 16 16 18 23 23 22 21 20 20 18 17 17 16 8 7 7 8 7 6 5 4
6 4 5 4 7 5 19 17 20 19 18 14 20 22 13 19 19 16 18 18 16 14 13 12 10 9 7 7 5 4 5 5
12 12 5 9 6 10 16 14 15 12 5 9 14 8 8 11 15 11 13 15 16 17 14 13 11 10 8 6 4 4 4 6
10 8 6 4 18 23 17 10 2 12 16 9 8 10 8 13 15 20 22 20 18 19 17 13 11 8 5 8 4 4 3 5
7 8 4 3 7 13 10 17 16 15 12 15 12 10 9 10 21 18 20 24 22 20 18 12 12 11 8 8 6 4 3 4
9 2 1 5 4 6 9 13 14 11 10 11 13 13 10 12 6 11 8 8 17 16 18 13 15 13 18 9 7 3 3 3
Wind_Direction
121 129 181 226 259 124 121 71 138 112 15 317 279 101 156 142 143 134 140 143 153 154 150 151 147 142 140 136 136 137 133 128
114 215 244 220 221 165 167 129 93 144 97 318 167 140 139 146 145 139 140 145 153 154 154 154 151 146 144 144 143 141 139 136
246 232 245 250 238 172 194 83 232 167 104 47 57 104 130 149 150 146 144 153 151 159 159 158 155 152 151 150 149 153 153 149
224 233 237 276 105 109 94 166 182 343 100 60 129 129 145 149 157 148 144 147 153 161 162 160 157 156 156 155 157 162 163 160
182 202 262 222 146 183 182 153 269 340 125 53 76 134 144 147 158 148 150 142 156 161 169 164 163 160 160 160 161 170 172 173
196 184 257 202 178 130 104 96 117 355 5 94 344 145 132 143 163 153 155 155 156 158 167 163 169 168 165 166 169 179 183 188
203 164 225 236 170 14 182 87 70 117 128 125 353 131 153 165 169 160 164 166 160 158 155 150 161 178 173 176 181 187 193 200
195 190 224 202 191 155 135 145 119 122 102 116 96 159 189 208 179 181 180 180 174 167 161 158 171 182 170 183 182 193 194 212
247 207 181 222 188 172 159 198 183 175 163 151 167 185 178 204 190 187 183 179 185 176 171 171 177 165 171 183 178 200 204 216
263 233 171 200 138 186 189 223 178 183 168 169 175 188 186 195 194 179 191 187 183 186 180 184 169 174 177 182 187 198 207 218
245 262 217 149 192 205 224 188 186 171 172 188 175 185 183 194 190 189 184 189 191 184 188 188 182 182 175 191 190 189 191 193
268 249 188 141 208 133 240 170 198 181 200 197 192 190 184 188 183 191 189 187 188 191 191 190 194 189 189 181 172 161 172 174
235 215 167 109 357 233 235 179 190 201 202 216 211 194 188 187 187 182 192 189 186 188 190 194 197 189 175 166 155 140 134 123
258 301 167 131 244 236 177 180 201 198 204 218 216 206 191 191 185 183 187 186 186 186 186 196 192 171 157 139 132 130 123 123
315 211 349 175 270 248 187 194 198 199 201 218 216 210 200 193 189 187 182 187 183 182 182 189 149 134 132 130 126 124 121 129
273 349 13 304 275 215 192 204 211 211 214 215 220 216 201 194 187 181 188 188 177 172 166 159 138 117 107 110 102 114 124 124
298 285 276 271 274 211 201 223 239 242 259 249 217 202 171 189 184 166 183 174 173 164 159 150 143 136 132 126 118 87 78 101
291 290 167 6 38 54 41 340 29 19 347 329 320 302 182 170 174 184 179 176 173 170 161 165 153 151 132 138 107 97 92 83
258 309 47 62 66 24 30 39 42 26 359 360 334 289 312 276 193 188 190 182 177 168 163 157 137 117 103 92 90 84 74 88
292 345 25 343 178 21 349 26 29 14 359 345 339 323 305 304 334 334 311 206 171 164 157 152 148 139 150 148 143 133 126 112